Regional Weather Roundup
Issued by NWS

Home | Current Version | Previous Version | Text Only | Print | Product List | Glossary On
Versions: 1 2 3 4 5 6 7 8 9 10 11 12 13 14 15 16 17 18 19 20 21 22 23 24 25 26 27 28 29 30 31 32 33 34 35 36 37 38 39 40 41 42 43 44 45 46 47 48 49 50
000
ASUS43 KMKX 250311
RWRWI

WISCONSIN REGIONAL WEATHER ROUNDUP
NATIONAL WEATHER SERVICE MILWAUKEE/SULLIVAN WI
1000 PM CDT FRI OCT 24 2014

NOTE: "FAIR" INDICATES FEW OR NO CLOUDS BELOW 12,000 FEET WITH NO
SIGNIFICANT WEATHER AND/OR OBSTRUCTIONS TO VISIBILITY.

WIZ001-002-006>008-014>016-023>028-250400-
NORTHWEST WISCONSIN

CITY           SKY/WX    TMP DP  RH WIND       PRES   REMARKS
SUPERIOR ARPT  MOCLDY    58  51  77 SW10      29.75S
ASHLAND        PTCLDY    57  53  86 SW12G21   29.76F
HAYWARD        MOCLDY    52  51  97 S6        29.81F FOG
SIREN          MOCLDY    54  52  95 S7        29.82S
CUMBERLAND     CLOUDY    54  52  94 SW6       29.84S FOG
RICE LAKE      CLOUDY    56  54  92 S7        29.86S FOG
CHETEK         CLOUDY    56  55  95 S5        29.86S FOG
LADYSMITH      CLOUDY    56  55  94 SW7       29.87S FOG
EAU CLAIRE     MOCLDY    53  52  96 S3        29.86S FOG
MENOMONIE      FOG       53  52  98 CALM      29.86F VSB 1/2
NEW RICHMOND   MOCLDY    51  51 100 S3        29.85S FOG
OSCEOLA        FOG       51  51 100 CALM      29.87R VSB 3/4
$$

WIZ003>005-009-010-017-018-250400-
NORTH CENTRAL WISCONSIN

CITY           SKY/WX    TMP DP  RH WIND       PRES   REMARKS
MANITOWISH WTR CLOUDY    54  51  90 SW9       29.81S
ARBOR VITAE    CLOUDY    57  53  87 SW6       29.82S
WOODRUFF       CLOUDY    57  53  87 SW6       29.82S
RHINELANDER    CLOUDY    53  49  86 SW10      29.84S
EAGLE RIVER    CLOUDY    54  47  78 SW9       29.82R
LAND O LAKES   CLOUDY    55  50  81 SW9G17    29.81S
PHILLIPS       CLOUDY    55  52  91 SW9       29.83S
TOMAHAWK       CLOUDY    54  51  90 SW3       29.85R
MEDFORD        CLOUDY    54  53  97 W9        29.86S FOG
MERRILL        CLOUDY    55  53  92 SW8       29.84F
$$

WIZ029-030-035-036-043>047-250400-
CENTRAL WISCONSIN

CITY           SKY/WX    TMP DP  RH WIND       PRES   REMARKS
WAUSAU         CLOUDY    55  51  86 SW5       29.85S
MOSINEE        CLOUDY    55  54  94 SW8       29.87F
MARSHFIELD     CLOUDY    58  55  90 W12       29.87S
STEVENS POINT  CLOUDY    54  52  92 SW7       29.87F
WAUPACA        CLOUDY    58  54  84 SW9       29.88S
WAUTOMA        CLOUDY    57  52  84 CALM      29.89S
WISC RAPIDS    CLOUDY    57  54  89 SW6       29.89F
CAMP DOUGLAS   CLOUDY    55  55 100 SW5       29.89F
$$

WIZ011>013-019>022-031-037>040-048>050-250400-
NORTHEAST WISCONSIN

CITY           SKY/WX    TMP DP  RH WIND       PRES   REMARKS
ANTIGO         CLOUDY    52  50  92 SW7       29.84F
SHAWANO        CLOUDY    53  50  89 SW5       29.86F
OCONTO         CLOUDY    51  51 100 S3        29.85F
STURGEON BAY   CLOUDY    50  48  93 S9        29.87F
GREEN BAY      CLOUDY    53  50  89 S5        29.86F
MANITOWOC      CLOUDY    52  51  97 S6        29.89S
APPLETON       CLOUDY    54  52  94 S5        29.88F
CLINTONVILLE   CLOUDY    52  50  93 CALM      29.86F
OSHKOSH        CLOUDY    55  51  86 S9        29.88S
$$

WIZ032>034-041-042-053>061-250400-
SOUTHWEST WISCONSIN

CITY           SKY/WX    TMP DP  RH WIND       PRES   REMARKS
LA CROSSE      MOCLDY    58  55  90 S7        29.89S
SPARTA         MOCLDY    56  55  94 CALM      29.90S
VIROQUA        CLOUDY    55  55 100 SW5       29.91F
BOSCOBEL       CLOUDY    59  56  89 SW6       29.93R
PRAIRIE DU CHI MOCLDY    59  56  89 CALM      29.92S FOG
PLATTEVILLE    CLOUDY    58  56  92 SW7       29.94R
$$

WIZ056-057-062-063-064-067-068-250400-
SOUTH CENTRAL WISCONSIN

CITY           SKY/WX    TMP DP  RH WIND       PRES   REMARKS
REEDSBURG      CLOUDY    58  56  93 SW6       29.90F
BARABOO/DELLS  CLOUDY    57  52  84 SW5       29.91S HAZE
LONE ROCK      CLOUDY    61  55  81 W5        29.92R HAZE
MINERAL POINT  CLOUDY    59  55  88 W6        29.93R
MADISON        CLOUDY    55  50  83 CALM      29.91S
MIDDLETON      CLOUDY    58  51  76 CALM      29.92R
WATERTOWN      CLOUDY    55  53  91 CALM      29.91R
MONROE         CLOUDY    55  50  82 SW9       29.92R
JANESVILLE     MOCLDY    55  45  67 SW5       29.91S
$$

WIZ051-052-058>065-066-070>072-250400-
SOUTHEAST WISCONSIN

CITY           SKY/WX    TMP DP  RH WIND       PRES   REMARKS
MILWAUKEE      CLOUDY    54  50  86 S6        29.92F FOG
WAUKESHA       CLOUDY    54  50  87 S5        29.92F
MILWAUKEE/TIMM CLOUDY    55  48  76 S5        29.91F
RACINE         CLOUDY    55  51  86 CALM      29.94F FOG
BURLINGTON     CLOUDY    52  51  96 CALM      29.92S
KENOSHA        CLOUDY    54  52  93 CALM      29.93S FOG
FOND DU LAC    CLOUDY    57  49  74 SW10      29.89F
SHEBOYGAN      CLOUDY    53  50  89 S6        29.90F
WEST BEND      CLOUDY    55  46  71 S3        29.90S
JUNEAU         CLOUDY    53  50  90 CALM      29.92R
$$

LSZ147-162-250400-
LAKE SUPERIOR

STATION/POSITION TIME  TEMP    WIND        PRES    WAVE
                       AIR SEA DIR/SP/G            HT/PER
                 (UTC) (F)     (DEG/KT/KT) (MB)    (FT/S)
W MID LAKE BUOY  0250   52 47  220/ 21/ 23 1004.3F   3/ 4
DEVILS ISLAND    0300   58     230/ 21/ 25 1005.4F
PORT WING        0240   59     190/ 12/ 15 1007.1F
SAXON HARBOR     0200   59     200/  5/ 17 1007.5F
$$

LMZ867-665-643>646-250400-
LAKE MICHIGAN

STATION/POSITION TIME  TEMP    WIND        PRES    WAVE
                       AIR SEA DIR/SP/G            HT/PER
                 (UTC) (F)     (DEG/KT/KT) (MB)    (FT/S)
CHAMBERS ISLAND  0200   50     170/  6/ 12 1011.5S
N MID LAKE BUOY  0250   49 51  210/ 19/ 25 1010.8F   4/ 5
NORTHPORT PIER   0200   49     180/  4/ 13 1011.5S
SISTER BAY       0242          170/  8/ 11   N/A
ALGOMA LAKESHORE 0211          220/ 20/ 23   N/A
KEWAUNEE LAKESHO 0200   51     190/ 10/ 13 1011.4F
SHEBOYGAN LAKESH 0300   53 51  190/ 11/ 12 1012.7F
PORT WASHINGTON  0200   53     190/  7/ 10 1013.9F
ATWATER BUOY     0300   53     140/  8/  8 1013.8F
MILWAUKEE LAKESH 0200   55     220/  7/  8   N/A
S MID LAKE BUOY  0250   56 54  170/  8/ 10 1013.7F   0
KENOSHA   LAKESH 0300   55     150/  3/  3 1013.5S
$$

TC  - TEMPERATURE IN CELSIUS
VSB - VISIBILITY IN STATUTE MILES
WCI - WIND CHILL INDEX
HX  - HEAT INDEX




USA.gov is the U.S. government's official web portal to all federal, state and local government web resources and services.